Voltar ao catálogo

STARLINK-35853

AtivoComunicaçõesVLEO
NORAD 67177·PAYLOAD·🇺🇸 United States

Lançado Dec 17, 2025 de Cape Canaveral Space Force Station

Loading…

Próximas Passagens (próximas 24 horas)

TLE

AtualizadoSource: CelesTrak SupGP

Época: Sep 15, 2026, 02:52 UTC

1 67177C 25303Q   26258.11993056  .00043953  00000+0  15917-2 0  2584
2 67177  43.0034 320.9828 0001763 266.7905 150.7320 15.27561863    11

Acompanhe STARLINK-35853 em tempo real com AllMySat

Download on the App Store